Time,TemperatureF,DewpointF,PressureIn,WindDirection,WindDirectionDegrees,WindSpeedMPH,WindSpeedGustMPH,Humidity,HourlyPrecipIn,Conditions,Clouds,dailyrainin,SoftwareType,DateUTC
2013-05-23 00:07:00,71.7,70.0,29.97,WSW,251,0.0,0.0,94,0.00,,,0.00,weatherlink.com 1.10,2013-05-23 04:07:00,
2013-05-23 01:14:00,70.9,70.0,29.96,SE,139,0.0,0.0,96,0.00,,,0.00,weatherlink.com 1.10,2013-05-23 05:14:00,
2013-05-23 01:23:00,70.6,70.0,29.96,SE,139,0.0,0.0,96,0.00,,,0.00,weatherlink.com 1.10,2013-05-23 05:23:00,
2013-05-23 01:38:00,70.4,69.0,29.95,SE,139,0.0,0.0,96,0.00,,,0.00,weatherlink.com 1.10,2013-05-23 05:38:00,
2013-05-23 01:53:00,70.0,69.0,29.95,SE,139,0.0,0.0,96,0.00,,,0.00,weatherlink.com 1.10,2013-05-23 05:53:00,
2013-05-23 02:08:00,69.9,69.0,29.95,SE,139,0.0,0.0,97,0.00,,,0.00,weatherlink.com 1.10,2013-05-23 06:08:00,
2013-05-23 02:23:00,69.9,69.0,29.95,SE,139,0.0,0.0,97,0.00,,,0.00,weatherlink.com 1.10,2013-05-23 06:23:00,
2013-05-23 02:38:00,69.8,69.0,29.94,SE,139,0.0,0.0,97,0.00,,,0.00,weatherlink.com 1.10,2013-05-23 06:38:00,
2013-05-23 02:53:00,69.5,69.0,29.94,SE,139,0.0,0.0,97,0.00,,,0.00,weatherlink.com 1.10,2013-05-23 06:53:00,
2013-05-23 03:08:00,69.2,68.0,29.94,SE,139,0.0,0.0,97,0.00,,,0.00,weatherlink.com 1.10,2013-05-23 07:08:00,
2013-05-23 03:23:00,69.1,68.0,29.94,SE,139,0.0,0.0,97,0.00,,,0.00,weatherlink.com 1.10,2013-05-23 07:23:00,
2013-05-23 03:38:00,69.0,69.0,29.94,SE,139,0.0,0.0,98,0.00,,,0.00,weatherlink.com 1.10,2013-05-23 07:38:00,
2013-05-23 04:08:00,68.9,68.0,29.94,SE,139,0.0,0.0,98,0.00,,,0.00,weatherlink.com 1.10,2013-05-23 08:08:00,
2013-05-23 04:23:00,68.7,68.0,29.95,SE,139,0.0,0.0,98,0.00,,,0.00,weatherlink.com 1.10,2013-05-23 08:23:00,
2013-05-23 04:38:00,68.3,68.0,29.95,SE,139,0.0,0.0,98,0.00,,,0.00,weatherlink.com 1.10,2013-05-23 08:38:00,
2013-05-23 04:53:00,68.4,68.0,29.95,SE,139,0.0,0.0,98,0.00,,,0.00,weatherlink.com 1.10,2013-05-23 08:53:00,
2013-05-23 05:08:00,68.0,68.0,29.95,SE,139,0.0,0.0,98,0.00,,,0.00,weatherlink.com 1.10,2013-05-23 09:08:00,
2013-05-23 05:23:00,68.4,68.0,29.95,SE,139,0.0,0.0,98,0.00,,,0.00,weatherlink.com 1.10,2013-05-23 09:23:00,
2013-05-23 05:38:00,67.9,67.0,29.94,SE,139,0.0,0.0,98,0.00,,,0.00,weatherlink.com 1.10,2013-05-23 09:38:00,
2013-05-23 05:53:00,67.6,67.0,29.95,SE,139,0.0,0.0,98,0.00,,,0.00,weatherlink.com 1.10,2013-05-23 09:53:00,
2013-05-23 06:08:00,67.7,67.0,29.95,SE,139,0.0,0.0,98,0.00,,,0.00,weatherlink.com 1.10,2013-05-23 10:08:00,
2013-05-23 06:23:00,67.7,67.0,29.96,SE,139,0.0,0.0,98,0.00,,,0.00,weatherlink.com 1.10,2013-05-23 10:23:00,
2013-05-23 06:38:00,67.9,67.0,29.96,SE,139,0.0,0.0,98,0.00,,,0.00,weatherlink.com 1.10,2013-05-23 10:38:00,
2013-05-23 06:53:00,68.0,68.0,29.96,SE,139,0.0,0.0,98,0.00,,,0.00,weatherlink.com 1.10,2013-05-23 10:53:00,
2013-05-23 07:08:00,68.5,68.0,29.96,SE,139,0.0,0.0,98,0.00,,,0.00,weatherlink.com 1.10,2013-05-23 11:08:00,
2013-05-23 07:23:00,71.4,71.0,29.96,SE,139,0.0,0.0,98,0.00,,,0.00,weatherlink.com 1.10,2013-05-23 11:23:00,
2013-05-23 07:38:00,71.9,71.0,29.96,SE,139,0.0,0.0,98,0.00,,,0.00,weatherlink.com 1.10,2013-05-23 11:38:00,
2013-05-23 07:53:00,72.4,72.0,29.95,SE,138,0.0,0.0,98,0.00,,,0.00,weatherlink.com 1.10,2013-05-23 11:53:00,
2013-05-23 08:09:00,74.4,74.0,29.95,SE,139,0.0,0.0,97,0.00,,,0.00,weatherlink.com 1.10,2013-05-23 12:09:00,
2013-05-23 08:24:00,74.9,72.0,29.95,West,270,1.0,2.0,91,0.00,,,0.00,weatherlink.com 1.10,2013-05-23 12:24:00,
2013-05-23 08:39:00,76.7,73.0,29.95,West,265,1.0,3.0,88,0.00,,,0.00,weatherlink.com 1.10,2013-05-23 12:39:00,
2013-05-23 08:54:00,76.2,72.0,29.95,NW,316,3.0,5.0,87,0.00,,,0.00,weatherlink.com 1.10,2013-05-23 12:54:00,
2013-05-23 09:09:00,76.9,72.0,29.95,North,352,0.0,4.0,85,0.00,,,0.00,weatherlink.com 1.10,2013-05-23 13:09:00,
2013-05-23 09:24:00,76.6,71.0,29.95,NW,315,3.0,6.0,83,0.00,,,0.00,weatherlink.com 1.10,2013-05-23 13:24:00,
2013-05-23 09:39:00,77.2,71.0,29.94,NW,305,1.0,3.0,82,0.00,,,0.00,weatherlink.com 1.10,2013-05-23 13:39:00,
2013-05-23 09:54:00,78.1,72.0,29.94,NW,306,3.0,7.0,80,0.00,,,0.00,weatherlink.com 1.10,2013-05-23 13:54:00,
2013-05-23 10:09:00,79.7,71.0,29.93,West,279,1.0,5.0,75,0.00,,,0.00,weatherlink.com 1.10,2013-05-23 14:09:00,
2013-05-23 10:24:00,79.0,71.0,29.93,NNW,333,1.0,3.0,76,0.00,,,0.00,weatherlink.com 1.10,2013-05-23 14:24:00,
2013-05-23 10:39:00,79.8,69.0,29.93,West,278,1.0,3.0,70,0.00,,,0.00,weatherlink.com 1.10,2013-05-23 14:39:00,
2013-05-23 10:54:00,81.4,69.0,29.93,SSE,153,0.0,3.0,67,0.00,,,0.00,weatherlink.com 1.10,2013-05-23 14:54:00,
2013-05-23 11:09:00,82.6,70.0,29.93,SW,235,0.0,4.0,66,0.00,,,0.00,weatherlink.com 1.10,2013-05-23 15:09:00,
2013-05-23 11:24:00,83.3,70.0,29.93,South,186,0.0,4.0,64,0.00,,,0.00,weatherlink.com 1.10,2013-05-23 15:24:00,
2013-05-23 11:39:00,83.2,70.0,29.93,South,184,2.0,2.0,65,0.00,,,0.00,weatherlink.com 1.10,2013-05-23 15:39:00,
2013-05-23 11:54:00,83.7,71.0,29.93,SW,223,5.0,5.0,66,0.00,,,0.00,weatherlink.com 1.10,2013-05-23 15:54:00,
2013-05-23 12:24:00,82.2,73.0,29.92,SSW,201,2.0,6.0,73,0.00,,,0.00,weatherlink.com 1.10,2013-05-23 16:24:00,
2013-05-23 12:39:00,81.2,73.0,29.91,SSE,167,3.0,7.0,77,0.00,,,0.00,weatherlink.com 1.10,2013-05-23 16:39:00,
2013-05-23 12:54:00,81.4,73.0,29.91,West,281,1.0,8.0,75,0.00,,,0.00,weatherlink.com 1.10,2013-05-23 16:54:00,
2013-05-23 13:09:00,81.2,72.0,29.90,ESE,102,5.0,7.0,74,0.00,,,0.00,weatherlink.com 1.10,2013-05-23 17:09:00,
2013-05-23 13:24:00,80.8,72.0,29.90,ESE,117,6.0,7.0,74,0.00,,,0.00,weatherlink.com 1.10,2013-05-23 17:24:00,
2013-05-23 13:39:00,80.6,72.0,29.90,WNW,289,0.0,6.0,76,0.00,,,0.00,weatherlink.com 1.10,2013-05-23 17:39:00,
2013-05-23 13:54:00,77.9,71.0,29.90,South,174,7.0,12.0,80,0.00,,,0.00,weatherlink.com 1.10,2013-05-23 17:54:00,
2013-05-23 14:09:00,76.0,72.0,29.91,NW,312,7.0,12.0,88,0.00,,,0.00,weatherlink.com 1.10,2013-05-23 18:09:00,
2013-05-23 14:24:00,73.1,71.0,29.91,West,274,0.0,5.0,92,0.24,,,0.24,weatherlink.com 1.10,2013-05-23 18:24:00,
2013-05-23 14:39:00,71.9,70.0,29.90,WSW,247,0.0,5.0,94,0.27,,,0.27,weatherlink.com 1.10,2013-05-23 18:39:00,
2013-05-23 14:54:00,72.5,71.0,29.89,SW,232,0.0,3.0,95,0.30,,,0.30,weatherlink.com 1.10,2013-05-23 18:54:00,
2013-05-23 15:09:00,74.6,73.0,29.90,West,271,0.0,2.0,96,0.30,,,0.30,weatherlink.com 1.10,2013-05-23 19:09:00,
2013-05-23 15:24:00,75.3,74.0,29.89,SSE,153,0.0,6.0,94,0.06,,,0.30,weatherlink.com 1.10,2013-05-23 19:24:00,
2013-05-23 15:39:00,76.3,74.0,29.88,SSW,198,0.0,6.0,93,0.02,,,0.30,weatherlink.com 1.10,2013-05-23 19:39:00,
2013-05-23 15:54:00,75.9,73.0,29.88,West,265,0.0,7.0,91,0.00,,,0.30,weatherlink.com 1.10,2013-05-23 19:54:00,
2013-05-23 16:09:00,75.5,73.0,29.88,SSW,198,3.0,6.0,90,0.00,,,0.30,weatherlink.com 1.10,2013-05-23 20:09:00,
2013-05-23 16:24:00,75.1,72.0,29.87,SSE,168,2.0,5.0,90,0.00,,,0.30,weatherlink.com 1.10,2013-05-23 20:24:00,
2013-05-23 16:39:00,75.2,73.0,29.86,SW,230,5.0,7.0,92,0.00,,,0.30,weatherlink.com 1.10,2013-05-23 20:39:00,
2013-05-23 16:55:00,76.7,74.0,29.85,WSW,258,0.0,5.0,91,0.00,,,0.30,weatherlink.com 1.10,2013-05-23 20:55:00,
2013-05-23 17:10:00,78.0,74.0,29.85,SW,226,7.0,9.0,86,0.00,,,0.30,weatherlink.com 1.10,2013-05-23 21:10:00,
2013-05-23 17:25:00,78.7,74.0,29.85,SSE,149,3.0,5.0,85,0.00,,,0.30,weatherlink.com 1.10,2013-05-23 21:25:00,
2013-05-23 17:40:00,78.5,73.0,29.85,SW,218,3.0,6.0,83,0.00,,,0.30,weatherlink.com 1.10,2013-05-23 21:40:00,
2013-05-23 17:55:00,77.2,72.0,29.85,SW,225,1.0,5.0,85,0.00,,,0.30,weatherlink.com 1.10,2013-05-23 21:55:00,
2013-05-23 18:10:00,76.6,72.0,29.86,West,281,2.0,5.0,86,0.00,,,0.30,weatherlink.com 1.10,2013-05-23 22:10:00,
2013-05-23 18:25:00,76.8,72.0,29.85,SW,236,2.0,5.0,86,0.00,,,0.30,weatherlink.com 1.10,2013-05-23 22:25:00,
2013-05-23 18:40:00,73.3,69.0,29.88,NNW,330,3.0,9.0,85,0.14,,,0.44,weatherlink.com 1.10,2013-05-23 22:40:00,
2013-05-23 18:55:00,69.2,67.0,29.86,WSW,251,0.0,3.0,93,0.67,,,0.97,weatherlink.com 1.10,2013-05-23 22:55:00,
2013-05-23 19:10:00,68.0,67.0,29.85,SSE,158,0.0,3.0,96,1.28,,,1.58,weatherlink.com 1.10,2013-05-23 23:10:00,
2013-05-23 19:25:00,67.9,67.0,29.86,NW,319,2.0,2.0,97,1.28,,,1.58,weatherlink.com 1.10,2013-05-23 23:25:00,
2013-05-23 19:40:00,68.2,67.0,29.86,East,82,0.0,0.0,97,1.14,,,1.58,weatherlink.com 1.10,2013-05-23 23:40:00,
2013-05-23 19:55:00,68.3,68.0,29.87,NNW,331,0.0,0.0,98,0.61,,,1.58,weatherlink.com 1.10,2013-05-23 23:55:00,
2013-05-23 20:10:00,68.1,67.0,29.89,NNW,337,7.0,10.0,97,0.12,,,1.70,weatherlink.com 1.10,2013-05-24 00:10:00,
2013-05-23 20:26:00,67.4,67.0,29.87,West,262,1.0,3.0,97,0.24,,,1.82,weatherlink.com 1.10,2013-05-24 00:26:00,
2013-05-23 20:40:00,67.5,67.0,29.85,SE,130,0.0,1.0,98,0.28,,,1.86,weatherlink.com 1.10,2013-05-24 00:40:00,
2013-05-23 20:55:00,67.4,67.0,29.86,WSW,247,2.0,5.0,98,0.28,,,1.86,weatherlink.com 1.10,2013-05-24 00:55:00,
2013-05-23 21:10:00,67.1,67.0,29.86,West,267,1.0,4.0,98,0.15,,,1.86,weatherlink.com 1.10,2013-05-24 01:10:00,
2013-05-23 21:25:00,67.1,67.0,29.87,SW,224,0.0,1.0,98,0.04,,,1.86,weatherlink.com 1.10,2013-05-24 01:25:00,
2013-05-23 21:40:00,67.0,67.0,29.87,East,101,0.0,2.0,98,0.00,,,1.86,weatherlink.com 1.10,2013-05-24 01:40:00,
2013-05-23 21:55:00,67.0,67.0,29.87,South,185,0.0,1.0,98,0.00,,,1.86,weatherlink.com 1.10,2013-05-24 01:55:00,
2013-05-23 22:10:00,66.9,66.0,29.87,South,179,0.0,1.0,98,0.00,,,1.86,weatherlink.com 1.10,2013-05-24 02:10:00,
2013-05-23 22:25:00,66.9,66.0,29.88,NW,306,0.0,0.0,98,0.00,,,1.86,weatherlink.com 1.10,2013-05-24 02:25:00,
2013-05-23 22:40:00,66.9,66.0,29.87,NW,306,0.0,0.0,98,0.00,,,1.86,weatherlink.com 1.10,2013-05-24 02:40:00,
2013-05-23 22:55:00,66.8,66.0,29.87,NW,306,0.0,0.0,98,0.00,,,1.86,weatherlink.com 1.10,2013-05-24 02:55:00,
2013-05-23 23:10:00,66.7,66.0,29.87,NW,306,0.0,0.0,98,0.00,,,1.86,weatherlink.com 1.10,2013-05-24 03:10:00,
2013-05-23 23:25:00,66.9,67.0,29.87,NW,306,0.0,0.0,99,0.00,,,1.86,weatherlink.com 1.10,2013-05-24 03:25:00,
2013-05-23 23:40:00,67.3,67.0,29.87,WSW,253,0.0,1.0,99,0.00,,,1.86,weatherlink.com 1.10,2013-05-24 03:40:00,
2013-05-23 23:55:00,67.5,67.0,29.86,SW,234,0.0,1.0,99,0.00,,,1.86,weatherlink.com 1.10,2013-05-24 03:55:00,